Showing default

IOD1_STARTICAL, 63212

Orbit data source: Space-Track

IOD1_STARTICAL, 63212 is a Spanish payload satellite in SSO that was launched on Sat, 15 Mar 2025 UTC via an FALCON 9 launch vehicle from the Air Force Western Test Range (AFWTR). Payload-class satellites include a variety of spacecraft equipped with specific instruments for various scientific and technological missions. These include communications satellites like Starlink; space stations such as the ISS; scientific satellites like the Hubble; Earth observation satellites from companies like Planet Labs, Umbra, and HawkEye 360; GPS; miniature CubeSats for education and research; and military/defense satellites.

Loading next visibility...
Identifier
63212, 2025-052C
Orbit
SSO
Last TLE update
1 day ago
Origin
Manufacturer
GOMSpace
Mission
Operational Amateur Communications
Bus & Motor
CUBESAT 16U, Unknown motor
Mass
20 kg wet, 20 kg dry
Launch date (UTC)
2025-03-15 (3 months ago)
Launch vehicle
FALCON 9
Launch site
Air Force Western Test Range (AFWTR)
Object type
Payload
Rocket body
Debris
Shape & HBR
Box, 0.1 m
Radar Cross Section
0.015 m², Medium (>0.1 m² and < 1m²)

Expand to show TLE details & history

TLE from 1 day ago
0 IOD1_STARTICAL
1 63212U 25052C   25174.43163148  .00014970  00000-0  61091-3 0  9998
2 63212  97.4264  68.4533 0002099  14.5498 345.5799 15.24511153 15374
Epoch: 2025-06-23T10:21Z
TLE epoch observation values (Epoch: 2025-06-23T10:21:32.959Z)
Latitude
-0.0001°
Longitude
1.22398°
Altitude
493.953 km
Speed
7.619 km/s
True Right ascension
04h 33m 48s
True Declination
0° 00' 00"
Sunlit
Object was in daylight at epoch
Visualization orbit readout
Latitude
-12.53364°
Longitude
-179.15658°
Altitude
499.144 km
Speed
7.613 km/s
Apparent Right ascension
16h 27m 01s
Apparent Declination
-25° 34' 08"
Sunlit
Object is in full shadow
Visualization observer readout
Local Sidereal Time
04:19:47
Azimuth
353.446° N
Elevation
-75.573°
Doppler factor
1
Orbital elements
Apogee altitude
490.656 km
Perigee altitude
487.773 km
Semi-major axis
6,867.351 km
Eccentricity
0.00021
Inclination
97.4264°
RAAN
68.4533°
Arg. of periapsis
14.5498°
True anomaly
Unknown
Mean anomaly
345.5799°
Eccentric anomaly
Unknown
Mean motion
3.81381 °/min
Orbital period
94.39 mins
BSTAR
0.00061091
Loading maneuver chart data...
Loading SW <> Apogee altitude chart data...
Loading historical data...
Loading historical data...
Loading historical data...
Loading historical data...
Loading historical data...
Loading historical data...
Loading historical data...

IOD1_STARTICAL Visibility forecast

Observer location: undefined°, undefined°

Span
Click to sort rows by Start time (UTC) header in descending order
Start Az.
Max El. time (UTC)
Max El. Az.
Max El.
End time (UTC)
End Az.
4 mins2025-06-25 05:28:50.543Z45.042° ENE2025-06-25 05:29:50.543Z75.746° E33.487°2025-06-25 05:32:50.543Z166.795° S
|